Location: Newark
(34.9500°N, 139.9667°E)
Time: 06:12:53
(UTC+00:00)

Transit 2A - Pass Details

Date: 10 December 2019
Orbit: 601 x 958 km, 66.7° (Epoch: 21 January)

Event Time Altitude Azimuth Distance (km) Brightness Sun altitude
Rises 07:12:34 0° 329° (NNW) 2,891 9.0 2.1°
Reaches altitude 10° 07:14:47 10° 326° (NW) 2,009 8.3 1.7°
Maximum altitude 07:19:13 62° 246° (WSW) 747 6.5 0.9°
Drops below altitude 10° 07:24:02 10° 166° (SSE) 2,168 8.6 0.0°
Sets 07:26:30 0° 163° (SSE) 3,142 9.3 -0.4°
